Weather History for Biloxi, MS

Change the Weather History Date:

Thursday, December 20, 2012

  Actual Average Record
Temperature  
Mean Temperature 57 °F -  
Max Temperature 68 °F 63 °F 76 °F (1967)
Min Temperature 44 °F 48 °F 21 °F (2000)
Degree Days  
Heating Degree Days 8    
Growing Degree Days 7 (Base 50)    
Moisture  
Dew Point 63 °F    
Average Humidity 91    
Maximum Humidity 100    
Minimum Humidity 30    
Precipitation  
Precipitation 0.06 in - - ()
Sea Level Pressure  
Sea Level Pressure 29.89 in    
Wind  
Wind Speed 15 mph (SW)    
Max Wind Speed 21 mph    
Max Gust Speed 30 mph    
Visibility 4 miles    
Events Fog , Rain    
Averages and records for this station are not official NWS values.
T = Trace of Precipitation, MM = Missing Value Source: NWS Daily Summary

Daily Weather History Graph

Daily Weather History Graph

Search for Another Location

Airport:

Trip Planner

Search our weather history database for the weather conditions in past years. The results will help you decide how hot, cold, wet, or windy it might be!

Date:

Astronomy

Dec. 20, 2012 Rise Set
Actual Time 6:48 AM CST 4:59 PM CST
Civil Twilight 6:21 AM CST 5:25 PM CST
Nautical Twilight 5:51 AM CST 5:55 PM CST
Astronomical Twilight 5:22 AM CST 6:25 PM CST
Moon 11:57 AM CST (12/20) No Moon Set
Length of Visible Light 11h 04m
Length of Day
10h 11m
First Quarter, 55% of the Moon is Illuminated
Dec 20
First Quarter
Dec 28
Full
Jan 4
Last Quarter
Jan 11
New
Jan 18
First Quarter

Hourly Weather History & Observations

Time (CST) Temp. Windchill Dew Point Humidity Pressure Visibility Wind Dir Wind Speed Gust Speed Precip Events Conditions
12:00 AM 66.2 °F - 66.2 °F 100% 29.90 in 10.0 mi SSE 11.5 mph 18.4 mph N/A   Overcast
12:16 AM 66.2 °F - 66.2 °F 100% 29.90 in 9.0 mi South 9.2 mph - N/A   Overcast
12:27 AM 66.2 °F - 66.2 °F 100% 29.89 in 9.0 mi SSE 12.7 mph - N/A   Overcast
12:31 AM 68.0 °F - 66.2 °F 94% 29.89 in 10.0 mi SSE 13.8 mph - N/A   Overcast
12:38 AM 68.0 °F - 66.2 °F 94% 29.90 in 9.0 mi SSE 11.5 mph - N/A   Overcast
12:55 AM 67.1 °F - 66.2 °F 97% 29.89 in 9.0 mi South 12.7 mph - 0.00 in   Overcast
12:59 AM 68.0 °F - 66.2 °F 94% 29.89 in 9.0 mi South 15.0 mph 19.6 mph N/A   Overcast
1:26 AM 68.0 °F - 66.2 °F 94% 29.88 in 8.0 mi South 12.7 mph - N/A Rain Light Rain
1:27 AM 68.0 °F - 66.2 °F 94% 29.88 in 8.0 mi South 13.8 mph - N/A Rain Light Rain
1:31 AM 68.0 °F - 66.2 °F 94% 29.88 in 8.0 mi South 15.0 mph 20.7 mph N/A   Overcast
1:34 AM 68.0 °F - 66.2 °F 94% 29.88 in 8.0 mi South 15.0 mph 23.0 mph N/A   Overcast
1:42 AM 68.0 °F - 66.2 °F 94% 29.88 in 8.0 mi South 16.1 mph 23.0 mph N/A   Overcast
1:55 AM 67.5 °F - 66.6 °F 97% 29.88 in 8.0 mi South 13.8 mph 21.9 mph 0.00 in   Overcast
2:05 AM 68.0 °F - 66.2 °F 94% 29.88 in 7.0 mi South 16.1 mph - N/A Rain Light Rain
2:14 AM 68.0 °F - 66.2 °F 94% 29.88 in 7.0 mi South 13.8 mph - N/A   Overcast
2:53 AM 68.0 °F - 66.2 °F 94% 29.88 in 7.0 mi South 11.5 mph - N/A   Overcast
2:55 AM 67.6 °F - 67.1 °F 98% 29.88 in 6.0 mi South 12.7 mph - 0.01 in   Overcast
3:39 AM 68.0 °F - 68.0 °F 100% 29.86 in 5.0 mi South 12.7 mph - N/A Rain Light Rain
3:45 AM 68.0 °F - 68.0 °F 100% 29.86 in 3.0 mi South 12.7 mph - N/A Rain Light Rain
3:47 AM 68.0 °F - 68.0 °F 100% 29.86 in 2.5 mi South 12.7 mph - N/A Rain Light Rain
3:49 AM 68.0 °F - 66.2 °F 94% 29.86 in 2.0 mi South 15.0 mph 20.7 mph N/A Rain Light Rain
3:50 AM 68.0 °F - 66.2 °F 94% 29.86 in 2.0 mi South 13.8 mph 20.7 mph N/A Rain Light Rain
3:51 AM 68.0 °F - 66.2 °F 94% 29.86 in 2.0 mi South 13.8 mph 21.9 mph N/A   Overcast
3:52 AM 68.0 °F - 66.2 °F 94% 29.86 in 1.8 mi South 16.1 mph 21.9 mph N/A   Overcast
3:54 AM 68.0 °F - 68.0 °F 100% 29.86 in 2.0 mi South 15.0 mph 21.9 mph N/A   Overcast
3:55 AM 67.6 °F - 67.1 °F 98% 29.86 in 2.0 mi South 13.8 mph 21.9 mph 0.01 in   Overcast
3:58 AM 68.0 °F - 68.0 °F 100% 29.85 in 2.5 mi South 13.8 mph 21.9 mph N/A   Overcast
3:59 AM 68.0 °F - 68.0 °F 100% 29.85 in 2.5 mi South 15.0 mph 21.9 mph N/A   Overcast
4:00 AM 68.0 °F - 68.0 °F 100% 29.85 in 3.0 mi South 16.1 mph 21.9 mph N/A   Overcast
4:01 AM 68.0 °F - 68.0 °F 100% 29.85 in 3.0 mi South 18.4 mph 21.9 mph N/A   Overcast
4:16 AM 68.0 °F - 68.0 °F 100% 29.86 in 4.0 mi South 12.7 mph - N/A   Overcast
4:21 AM 68.0 °F - 66.2 °F 94% 29.86 in 2.5 mi South 12.7 mph - N/A   Overcast
4:24 AM 68.0 °F - 66.2 °F 94% 29.86 in 2.0 mi South 13.8 mph - N/A   Overcast
4:27 AM 68.0 °F - 68.0 °F 100% 29.86 in 1.8 mi South 16.1 mph - N/A   Overcast
4:30 AM 68.0 °F - 68.0 °F 100% 29.86 in 1.5 mi SSW 16.1 mph - N/A   Overcast
4:34 AM 68.0 °F - 68.0 °F 100% 29.86 in 1.8 mi SSW 15.0 mph - N/A   Overcast
4:37 AM 68.0 °F - 68.0 °F 100% 29.86 in 2.0 mi SSW 15.0 mph - N/A   Overcast
4:40 AM 68.0 °F - 68.0 °F 100% 29.87 in 2.5 mi SSW 15.0 mph - N/A   Overcast
4:43 AM 68.0 °F - 68.0 °F 100% 29.87 in 3.0 mi SSW 13.8 mph - N/A   Overcast
4:47 AM 68.0 °F - 68.0 °F 100% 29.86 in 2.5 mi SSW 16.1 mph - N/A   Overcast
4:52 AM 68.0 °F - 68.0 °F 100% 29.86 in 2.5 mi South 17.3 mph - N/A   Overcast
4:54 AM 68.0 °F - 68.0 °F 100% 29.86 in 2.5 mi SSW 17.3 mph - N/A   Overcast
4:55 AM 67.6 °F - 67.5 °F 99% 29.86 in 2.5 mi SSW 15.0 mph - N/A   Overcast
4:58 AM 68.0 °F - 68.0 °F 100% 29.86 in 3.0 mi SSW 17.3 mph - N/A   Overcast
5:18 AM 68.0 °F - 68.0 °F 100% 29.86 in 2.5 mi SSW 15.0 mph - N/A   Overcast
5:22 AM 68.0 °F - 66.2 °F 94% 29.86 in 2.5 mi SSW 12.7 mph - N/A   Overcast
5:31 AM 68.0 °F - 66.2 °F 94% 29.86 in 2.5 mi SSW 13.8 mph - N/A   Overcast
5:34 AM 68.0 °F - 66.2 °F 94% 29.86 in 3.0 mi SSW 15.0 mph - N/A   Overcast
5:36 AM 68.0 °F - 66.2 °F 94% 29.86 in 3.0 mi SSW 13.8 mph - N/A   Overcast
5:41 AM 68.0 °F - 68.0 °F 100% 29.86 in 4.0 mi SSW 17.3 mph 23.0 mph N/A   Overcast
5:43 AM 68.0 °F - 68.0 °F 100% 29.86 in 5.0 mi SSW 18.4 mph 23.0 mph N/A   Overcast
5:45 AM 68.0 °F - 68.0 °F 100% 29.86 in 6.0 mi SSW 19.6 mph - N/A   Overcast
5:55 AM 68.7 °F - 68.4 °F 99% 29.85 in 10.0 mi SSW 18.4 mph 26.5 mph N/A   Overcast
6:02 AM 68.0 °F - 68.0 °F 100% 29.85 in 6.0 mi SSW 19.6 mph - N/A   Overcast
6:07 AM 68.0 °F - 68.0 °F 100% 29.85 in 4.0 mi SSW 18.4 mph - N/A   Overcast
6:14 AM 68.0 °F - 68.0 °F 100% 29.85 in 5.0 mi SSW 19.6 mph 27.6 mph N/A   Overcast
6:19 AM 68.0 °F - 68.0 °F 100% 29.85 in 3.0 mi SSW 18.4 mph - N/A   Overcast
6:20 AM 68.0 °F - 66.2 °F 94% 29.85 in 2.5 mi SSW 18.4 mph - N/A   Overcast
6:21 AM 68.0 °F - 66.2 °F 94% 29.85 in 2.0 mi SSW 17.3 mph - N/A   Overcast
6:22 AM 68.0 °F - 66.2 °F 94% 29.85 in 1.8 mi SSW 17.3 mph - N/A   Overcast
6:23 AM 68.0 °F - 66.2 °F 94% 29.86 in 1.8 mi SSW 18.4 mph - N/A   Overcast
6:24 AM 66.2 °F - 66.2 °F 100% 29.86 in 1.5 mi SSW 18.4 mph - N/A   Overcast
6:28 AM 66.2 °F - 66.2 °F 100% 29.86 in 1.2 mi SSW 17.3 mph - N/A   Overcast
6:30 AM 66.2 °F - 66.2 °F 100% 29.86 in 1.5 mi SSW 17.3 mph - N/A   Overcast
6:36 AM 68.0 °F - 66.2 °F 94% 29.85 in 1.8 mi SSW 16.1 mph - N/A   Overcast
6:38 AM 68.0 °F - 66.2 °F 94% 29.85 in 2.0 mi SSW 15.0 mph - N/A   Overcast
6:43 AM 68.0 °F - 66.2 °F 94% 29.85 in 1.8 mi SSW 16.1 mph - N/A   Overcast
6:44 AM 68.0 °F - 66.2 °F 94% 29.85 in 1.5 mi SSW 17.3 mph - N/A   Overcast
6:45 AM 68.0 °F - 66.2 °F 94% 29.85 in 1.2 mi SSW 18.4 mph - N/A   Overcast
6:49 AM 66.2 °F - 66.2 °F 100% 29.85 in 0.8 mi SSW 18.4 mph - N/A   Mist
6:52 AM 66.2 °F - 66.2 °F 100% 29.85 in 0.5 mi SSW 16.1 mph - N/A Fog Fog
6:53 AM 66.2 °F - 66.2 °F 100% 29.85 in 0.5 mi SSW 17.3 mph - N/A Fog Fog
6:55 AM 66.7 °F - 66.4 °F 99% 29.85 in 0.5 mi SSW 17.3 mph - N/A Fog Fog
6:56 AM 66.2 °F - 66.2 °F 100% 29.85 in 0.5 mi SSW 16.1 mph - N/A Fog Fog
7:07 AM 66.2 °F - 66.2 °F 100% 29.86 in 0.2 mi SW 17.3 mph - N/A Fog Fog
7:08 AM 66.2 °F - 66.2 °F 100% 29.86 in 0.2 mi SW 16.1 mph - N/A Fog Fog
7:09 AM 66.2 °F - 66.2 °F 100% 29.86 in 0.2 mi SW 16.1 mph - N/A Fog Fog
7:15 AM 66.2 °F - 66.2 °F 100% 29.86 in 0.2 mi SSW 15.0 mph - N/A Fog Fog
7:18 AM 66.2 °F - 66.2 °F 100% 29.86 in 0.5 mi SW 16.1 mph - N/A Fog Fog
7:23 AM 66.2 °F - 66.2 °F 100% 29.86 in 0.5 mi SSW 16.1 mph - N/A Fog Fog
7:31 AM 68.0 °F - 66.2 °F 94% 29.86 in 0.5 mi SSW 16.1 mph - N/A Fog Fog
7:32 AM 68.0 °F - 66.2 °F 94% 29.86 in 0.5 mi SSW 16.1 mph - N/A Fog Fog
7:33 AM 68.0 °F - 66.2 °F 94% 29.86 in 0.8 mi SSW 16.1 mph - N/A   Mist
7:34 AM 68.0 °F - 66.2 °F 94% 29.86 in 0.8 mi SSW 16.1 mph - N/A   Mist
7:37 AM 68.0 °F - 66.2 °F 94% 29.86 in 1.0 mi SSW 16.1 mph - N/A   Mist
7:40 AM 68.0 °F - 66.2 °F 94% 29.86 in 1.5 mi SW 15.0 mph - N/A   Overcast
7:41 AM 68.0 °F - 66.2 °F 94% 29.85 in 2.0 mi SW 16.1 mph 23.0 mph N/A   Overcast
7:42 AM 68.0 °F - 66.2 °F 94% 29.85 in 2.5 mi SW 17.3 mph 23.0 mph N/A   Overcast
7:43 AM 68.0 °F - 66.2 °F 94% 29.85 in 3.0 mi SW 17.3 mph 23.0 mph N/A   Overcast
7:48 AM 68.0 °F - 68.0 °F 100% 29.86 in 6.0 mi SW 19.6 mph 25.3 mph N/A   Overcast
7:52 AM 68.0 °F - 68.0 °F 100% 29.86 in 2.5 mi SW 17.3 mph 25.3 mph N/A   Overcast
7:53 AM 68.0 °F - 68.0 °F 100% 29.86 in 2.0 mi SW 17.3 mph 25.3 mph N/A   Overcast
7:54 AM 68.0 °F - 68.0 °F 100% 29.86 in 1.8 mi SW 18.4 mph 25.3 mph N/A   Overcast
7:55 AM 68.0 °F - 67.8 °F 99% 29.86 in 1.2 mi SW 19.6 mph 25.3 mph N/A   Overcast
7:57 AM 68.0 °F - 68.0 °F 100% 29.86 in 0.8 mi SW 17.3 mph 25.3 mph N/A   Mist
7:59 AM 68.0 °F - 68.0 °F 100% 29.86 in 0.5 mi SW 19.6 mph - N/A Fog Fog
8:01 AM 68.0 °F - 68.0 °F 100% 29.86 in 0.5 mi SW 17.3 mph 25.3 mph N/A Fog Fog
8:02 AM 68.0 °F - 68.0 °F 100% 29.86 in 0.5 mi SW 17.3 mph 25.3 mph N/A Fog Fog
8:03 AM 68.0 °F - 68.0 °F 100% 29.86 in 0.2 mi SW 17.3 mph 25.3 mph N/A Fog Fog
8:36 AM 68.0 °F - 68.0 °F 100% 29.86 in 0.2 mi SW 18.4 mph - N/A Fog , Rain Light Rain
8:40 AM 68.0 °F - 68.0 °F 100% 29.86 in 0.2 mi SW 19.6 mph - N/A Fog , Rain Light Rain
8:45 AM 68.0 °F - 68.0 °F 100% 29.86 in 0.8 mi SW 20.7 mph - N/A Rain Light Rain
8:55 AM 67.8 °F - 67.5 °F 99% 29.86 in 1.5 mi SW 17.3 mph - 0.00 in   Overcast
9:00 AM 68.0 °F - 68.0 °F 100% 29.86 in 1.8 mi SW 17.3 mph - N/A   Overcast
9:01 AM 68.0 °F - 68.0 °F 100% 29.86 in 2.0 mi SW 17.3 mph - N/A   Overcast
9:03 AM 68.0 °F - 68.0 °F 100% 29.86 in 3.0 mi SW 15.0 mph - N/A   Mostly Cloudy
9:13 AM 68.0 °F - 66.2 °F 94% 29.90 in 9.0 mi NW 17.3 mph 27.6 mph N/A   Mostly Cloudy
9:15 AM 66.2 °F - 62.6 °F 88% 29.91 in 8.0 mi NW 15.0 mph 27.6 mph N/A Rain Light Rain
9:16 AM 64.4 °F - 60.8 °F 88% 29.92 in 7.0 mi NW 13.8 mph 27.6 mph N/A Rain Light Rain
9:17 AM 62.6 °F - 57.2 °F 82% 29.93 in 7.0 mi NW 12.7 mph 27.6 mph N/A Rain Light Rain
9:18 AM 62.6 °F - 57.2 °F 82% 29.93 in 6.0 mi NW 11.5 mph 27.6 mph N/A Rain Light Rain
9:20 AM 60.8 °F - 55.4 °F 82% 29.93 in 4.0 mi NW 9.2 mph 27.6 mph N/A Rain Light Rain
9:21 AM 59.0 °F - 55.4 °F 88% 29.92 in 3.0 mi NW 9.2 mph 27.6 mph N/A Rain Light Rain
9:22 AM 59.0 °F - 55.4 °F 88% 29.92 in 2.5 mi NW 10.4 mph 25.3 mph N/A Rain Light Rain
9:25 AM 57.2 °F - 53.6 °F 88% 29.92 in 2.5 mi NW 10.4 mph 23.0 mph N/A Rain Heavy Rain
9:27 AM 57.2 °F - 53.6 °F 88% 29.93 in 3.0 mi NW 6.9 mph 23.0 mph N/A Rain Light Rain
9:33 AM 57.2 °F - 53.6 °F 88% 29.92 in 9.0 mi NW 8.1 mph 23.0 mph N/A   Mostly Cloudy
9:55 AM 57.0 °F - 49.8 °F 77% 29.93 in 10.0 mi NW 15.0 mph - 0.04 in   Mostly Cloudy
10:55 AM 59.4 °F - 46.9 °F 63% 29.91 in 10.0 mi NNW 16.1 mph 23.0 mph N/A   Partly Cloudy
11:55 AM 63.5 °F - 45.9 °F 53% 29.90 in 10.0 mi NW 15.0 mph 28.8 mph N/A   Partly Cloudy
12:55 PM 62.1 °F - 45.3 °F 54% 29.90 in 10.0 mi NW 13.8 mph 21.9 mph N/A   Clear
1:55 PM 63.9 °F - 44.2 °F 49% 29.90 in 10.0 mi NW 16.1 mph 25.3 mph N/A   Clear
2:55 PM 62.4 °F - 30.6 °F 30% 29.95 in 10.0 mi NNW 18.4 mph 29.9 mph N/A   Clear
3:55 PM 58.8 °F - 31.6 °F 36% 29.99 in 10.0 mi NW 18.4 mph 26.5 mph N/A   Clear
4:55 PM 55.8 °F - 30.9 °F 39% 30.03 in 10.0 mi NNW 15.0 mph 28.8 mph N/A   Clear
5:55 PM 53.6 °F - 32.7 °F 45% 30.08 in 10.0 mi NW 12.7 mph - N/A   Clear
6:55 PM 52.2 °F - 31.1 °F 45% 30.14 in 10.0 mi NNW 16.1 mph - N/A   Clear
7:55 PM 50.9 °F - 29.8 °F 44% 30.19 in 10.0 mi NW 12.7 mph 19.6 mph N/A   Clear
8:55 PM 49.3 °F - 30.6 °F 49% 30.22 in 10.0 mi NW 12.7 mph 18.4 mph N/A   Clear
9:55 PM 48.0 °F - 29.8 °F 49% 30.24 in 10.0 mi NNW 8.1 mph - N/A   Clear
10:55 PM 46.4 °F 42.4 °F 29.3 °F 51% 30.26 in 10.0 mi NW 8.1 mph - N/A   Clear
11:55 PM 44.8 °F 40.4 °F 28.4 °F 53% 30.27 in 10.0 mi NW 8.1 mph - N/A   Clear